Flag for Switzerland Weather past 2 weeks in Liestal, Basel-Land, Switzerland

41 °F

Sprinkles. Partly sunny.

Feels Like: 36 °F
Forecast: 25 / 37 °F
Wind: 8 mph from Northwest

Location: Bale-Mulhouse

Current Time: Nov 26, 2015 at 1:38:32 PM

Latest Report: Nov 26, 2015 at 1:00 PM

Visibility: N/A

Pressure: 30.01 "Hg

Humidity: 87%

Dew point: 37 °F

Location of LiestalLocation

Historic Weather in Liestal — Graph


Liestal temperature yesterday

Maximum temperature yesterday: 43 °F (at 3:00 PM)
Minimum temperature yesterday: 32 °F (at 2:00 AM)
Average temperature yesterday: 37 °F

Past Weeks' High & Low Weather Summary

High66 °F (Nov 15, 2:30 PM)100% (Nov 12, 1:30 AM)30.51 "Hg (Nov 12, 1:30 AM)
Low23 °F (Nov 24, 5:30 AM)42% (Nov 16, 1:00 PM)29.45 "Hg (Nov 21, 12:30 PM)
Average46 °F80%30.09 "Hg
* Reported Nov 11 12:00 Noon — Nov 26 12:30 PM, Liestal, Weather by CustomWeather, © 2015

Note: Actual official high and low records may vary slightly from our data, if they occured in-between our weather recording intervals... More about our weather records


Liestal weather history for previous 24 hours

Time TempWeatherWind HumidityBarometerVisibility
12:30 PM
Thu, Nov 26
41 °FBroken clouds.8 mph87%30.01 "HgN/A
12:00 PM39 °FSprinkles. Partly sunny.10 mph93%30.01 "Hg6 mi
11:30 AM41 °FSprinkles. Partly sunny.10 mph87%30.01 "HgN/A
11:00 AM39 °FPartly sunny.7 mph87%30.01 "HgN/A
10:30 AM39 °FPartly sunny.8 mph87%30.01 "HgN/A
10:00 AM39 °FPartly sunny.3 mph87%29.98 "HgN/A
9:30 AM37 °FPartly sunny.1 mph93%29.98 "HgN/A
9:00 AM37 °FPartly sunny.2 mph93%29.98 "HgN/A
8:30 AM37 °FPartly sunny.2 mph93%29.95 "HgN/A
8:00 AM37 °FBroken clouds.1 mph93%29.95 "HgN/A
7:30 AM37 °FPassing clouds.2 mph93%29.92 "HgN/A
7:00 AM37 °FPassing clouds.2 mph93%29.92 "HgN/A
6:30 AM37 °FLight rain. Passing clouds.3 mph93%29.89 "HgN/A
6:00 AM37 °FLight rain. Passing clouds.3 mph93%29.89 "Hg6 mi
5:30 AM37 °FPassing clouds.3 mph93%29.89 "HgN/A
4:30 AM37 °FPassing clouds.5 mph93%29.86 "HgN/A
4:00 AM37 °FMostly cloudy.6 mph93%29.86 "HgN/A
3:30 AM37 °FMostly cloudy.5 mph93%29.86 "HgN/A
3:00 AM37 °FOvercast.3 mph93%29.86 "HgN/A
2:30 AM37 °FPassing clouds.3 mph93%29.83 "HgN/A
2:00 AM37 °FMostly cloudy.6 mph93%29.83 "HgN/A
1:30 AM37 °FMostly cloudy.6 mph93%29.80 "HgN/A
12:30 AM37 °FPassing clouds.3 mph93%29.80 "HgN/A
12:00 AM37 °FPassing clouds.2 mph93%29.80 "HgN/A
11:30 PM
Wed, Nov 25
37 °FPassing clouds.1 mph93%29.77 "HgN/A
11:00 PM37 °FLight rain. Partly cloudy.3 mph93%29.77 "HgN/A
10:30 PM37 °FLight rain. Partly cloudy.2 mph93%29.77 "Hg6 mi
10:00 PM39 °FRain. Passing clouds.9 mph87%29.77 "Hg4 mi
9:30 PM39 °FRain. Passing clouds.No wind93%29.77 "Hg4 mi
9:00 PM39 °FLight rain. Partly cloudy.2 mph93%29.77 "HgN/A
8:30 PM41 °FLight rain. Partly cloudy.3 mph87%29.77 "HgN/A
8:00 PM39 °FPassing clouds.3 mph87%29.77 "HgN/A
7:30 PM41 °FPartly cloudy.3 mph81%29.77 "HgN/A
7:00 PM41 °FPartly cloudy.5 mph81%29.77 "HgN/A
6:30 PM41 °FPassing clouds.1 mph87%29.77 "HgN/A
6:00 PM41 °FPassing clouds.5 mph87%29.77 "HgN/A
5:30 PM39 °FPassing clouds.7 mph93%29.77 "HgN/A
5:00 PM41 °FPartly cloudy.9 mph87%29.77 "HgN/A
4:30 PM41 °FBroken clouds.8 mph87%29.77 "HgN/A
4:00 PM41 °FPartly sunny.12 mph93%29.77 "HgN/A
3:30 PM41 °FPartly sunny.10 mph87%29.77 "HgN/A
3:00 PM43 °FPartly sunny.9 mph81%29.77 "HgN/A
2:30 PM41 °FPartly sunny.8 mph87%29.77 "HgN/A
2:00 PM41 °FPartly sunny.10 mph87%29.80 "HgN/A
1:30 PM41 °FBroken clouds.9 mph87%29.80 "HgN/A
1:00 PM39 °FBroken clouds.5 mph100%29.80 "HgN/A
Weather by CustomWeather, © 2015

See weather overviewHow to use our weather pages